Weather History for KHSI - July, 2013

Change the Weather History Date:

Tuesday, July 30, 2013

  Actual Average Record
Temperature  
Mean Temperature 69 °F 77 °F  
Max Temperature 73 °F 87 °F 106 °F (1917)
Min Temperature 64 °F 67 °F 48 °F (1971)
Degree Days  
Heating Degree Days 0 0  
Month to date heating degree days 6 0  
Since 1 June heating degree days 33 21  
Since 1 July heating degree days 6 0  
Cooling Degree Days 4 12  
Month to date cooling degree days 325 363  
Year to date cooling degree days 635 647  
Since 1 June cooling degree days 561 588  
Growing Degree Days 18 (Base 50)    
Moisture  
Dew Point 63 °F    
Average Humidity 81    
Maximum Humidity 93    
Minimum Humidity 68    
Precipitation  
Precipitation 0.01 in 0.10 in 0.75 in (1915)
Month to date precipitation 1.77 3.62  
Year to date precipitation 14.81 17.24  
Snow  
Snow 0.00 in 0.00 in - ()
Month to date snowfall 0.0 0.0  
Since 1 June snowfall 0.0 0.0  
Since 1 July snowfall 0.0 0.0  
Snow Depth 0.00 in    
Sea Level Pressure  
Sea Level Pressure 30.09 in    
Wind  
Wind Speed 4 mph (NNE)    
Max Wind Speed 8 mph    
Max Gust Speed 12 mph    
Visibility 5 miles    
Events Fog , Rain    
T = Trace of Precipitation, MM = Missing Value Source: NWS Daily Summary

Daily Weather History Graph

Daily Weather History Graph

Search for Another Location

Airport or City:

Trip Planner

Search our weather history database for the weather conditions in past years. The results will help you decide how hot, cold, wet, or windy it might be!

Date:

Astronomy

Jul. 30, 2013 Rise Set
Actual Time 6:29 AM CDT 8:50 PM CDT
Civil Twilight 5:58 AM CDT 9:21 PM CDT
Nautical Twilight 5:20 AM CDT 9:59 PM CDT
Astronomical Twilight 4:37 AM CDT 10:41 PM CDT
Moon 12:48 AM CDT (7/30) 3:12 PM CDT (7/30)
Length of Visible Light 15h 23m
Length of Day
14h 21m
Last Quarter, 41% of the Moon is Illuminated
Jul 30
Last Quarter
Aug 6
New
Aug 14
First Quarter
Aug 20
Full
Aug 28
Last Quarter

Hourly Weather History & Observations

Time (CDT) Temp. Dew Point Humidity Pressure Visibility Wind Dir Wind Speed Gust Speed Precip Events Conditions
12:07 AM 64.4 °F 62.6 °F 94% 30.05 in 2.0 mi Calm Calm - N/A   Overcast
12:26 AM 64.4 °F 62.6 °F 94% 30.06 in 1.0 mi ENE 3.5 mph - N/A   Overcast
12:49 AM 64.4 °F 62.6 °F 94% 30.06 in 2.0 mi Calm Calm - 0.00 in Rain Light Rain
12:53 AM 64.9 °F 63.0 °F 93% 30.04 in 2.0 mi Calm Calm - 0.01 in Rain Light Rain
1:37 AM 64.4 °F 62.6 °F 94% 30.06 in 3.0 mi North 4.6 mph - 0.00 in   Overcast
1:53 AM 64.9 °F 63.0 °F 93% 30.03 in 4.0 mi North 8.1 mph - 0.00 in   Overcast
2:53 AM 64.9 °F 63.0 °F 93% 30.03 in 6.0 mi ENE 3.5 mph - N/A   Overcast
3:53 AM 64.9 °F 63.0 °F 93% 30.03 in 5.0 mi Calm Calm - N/A   Overcast
4:41 AM 64.4 °F 62.6 °F 94% 30.06 in 1.8 mi North 3.5 mph - N/A   Overcast
4:51 AM 64.4 °F 62.6 °F 94% 30.07 in 3.0 mi North 3.5 mph - N/A   Overcast
4:53 AM 64.9 °F 63.0 °F 93% 30.04 in 4.0 mi North 4.6 mph - N/A   Overcast
5:15 AM 64.4 °F 62.6 °F 94% 30.08 in 2.0 mi Calm Calm - N/A   Overcast
5:36 AM 64.4 °F 62.6 °F 94% 30.08 in 1.0 mi North 4.6 mph - N/A   Overcast
5:53 AM 64.0 °F 63.0 °F 96% 30.06 in 1.2 mi North 3.5 mph - N/A   Overcast
6:02 AM 64.4 °F 62.6 °F 94% 30.09 in 0.5 mi North 3.5 mph - N/A Fog Fog
6:23 AM 64.4 °F 62.6 °F 94% 30.09 in 1.2 mi NNE 3.5 mph - N/A   Overcast
6:34 AM 64.4 °F 62.6 °F 94% 30.09 in 3.0 mi North 4.6 mph - N/A   Overcast
6:41 AM 64.4 °F 62.6 °F 94% 30.09 in 2.5 mi North 4.6 mph - N/A   Overcast
6:51 AM 64.4 °F 62.6 °F 94% 30.09 in 1.0 mi North 5.8 mph - N/A   Overcast
6:53 AM 64.0 °F 63.0 °F 96% 30.07 in 1.2 mi North 3.5 mph - N/A   Overcast
7:02 AM 64.4 °F 62.6 °F 94% 30.09 in 3.0 mi NNE 4.6 mph - N/A   Overcast
7:53 AM 64.0 °F 62.1 °F 93% 30.08 in 1.8 mi North 4.6 mph - N/A   Overcast
8:29 AM 64.4 °F 62.6 °F 94% 30.11 in 0.8 mi North 4.6 mph - N/A   Overcast
8:53 AM 64.9 °F 63.0 °F 93% 30.09 in 1.2 mi NNE 4.6 mph - N/A   Overcast
9:53 AM 64.9 °F 63.0 °F 93% 30.10 in 1.2 mi NNE 6.9 mph - 0.01 in   Overcast
10:12 AM 66.2 °F 64.4 °F 94% 30.11 in 2.5 mi NE 5.8 mph - N/A   Overcast
10:29 AM 66.2 °F 62.6 °F 88% 30.11 in 4.0 mi NNE 5.8 mph - N/A   Overcast
10:53 AM 66.9 °F 63.0 °F 87% 30.09 in 4.0 mi North 5.8 mph - N/A   Overcast
11:07 AM 68.0 °F 62.6 °F 83% 30.12 in 8.0 mi North 5.8 mph - N/A   Overcast
11:34 AM 66.2 °F 62.6 °F 88% 30.13 in 4.0 mi North 6.9 mph - N/A   Overcast
11:53 AM 66.9 °F 63.0 °F 87% 30.11 in 5.0 mi NNE 4.6 mph - N/A   Overcast
12:53 PM 68.0 °F 63.0 °F 84% 30.10 in 6.0 mi ENE 5.8 mph - N/A   Haze
1:16 PM 69.8 °F 62.6 °F 78% 30.12 in 7.0 mi NNE 3.5 mph - N/A   Overcast
1:28 PM 69.8 °F 62.6 °F 78% 30.13 in 6.0 mi North 4.6 mph - N/A   Haze
1:38 PM 69.8 °F 62.6 °F 78% 30.13 in 6.0 mi North 4.6 mph - N/A   Haze
1:53 PM 69.1 °F 63.0 °F 81% 30.09 in 8.0 mi NNE 4.6 mph - N/A   Overcast
2:53 PM 70.0 °F 63.0 °F 78% 30.10 in 7.0 mi NE 4.6 mph - N/A   Overcast
3:18 PM 71.6 °F 64.4 °F 78% 30.12 in 7.0 mi North 3.5 mph - N/A   Overcast
3:53 PM 72.0 °F 63.0 °F 73% 30.09 in 8.0 mi Calm Calm - N/A   Overcast
4:53 PM 73.0 °F 63.0 °F 71% 30.07 in 10.0 mi NE 3.5 mph - N/A   Overcast
5:53 PM 73.0 °F 63.0 °F 71% 30.06 in 10.0 mi ENE 3.5 mph - N/A   Overcast
6:53 PM 72.0 °F 62.1 °F 71% 30.06 in 6.0 mi South 5.8 mph - N/A   Haze
7:53 PM 71.1 °F 62.1 °F 73% 30.07 in 10.0 mi Calm Calm - N/A   Overcast
8:53 PM 71.1 °F 62.1 °F 73% 30.09 in 10.0 mi South 4.6 mph - N/A   Overcast
9:53 PM 69.1 °F 63.0 °F 81% 30.13 in 8.0 mi ENE 3.5 mph - N/A   Overcast
10:53 PM 69.1 °F 63.0 °F 81% 30.14 in 10.0 mi NE 4.6 mph - N/A   Overcast
11:46 PM 66.2 °F 62.6 °F 88% 30.16 in 10.0 mi Calm Calm - N/A   Scattered Clouds
11:53 PM 66.9 °F 62.1 °F 84% 30.14 in 10.0 mi West 3.5 mph - N/A   Partly Cloudy